sat.trackr.live / text

‹ back to catalog

STARLINK-30260

NORAD 57524 · 2023-115D

PAYLOAD ACTIVE UNKNOWN

§ Identity

Operator
Country
US
Launch date
2023-08-08
Launch site
AFWTR
Launch vehicle
Mass (kg)
RCS (m²)

Purposes: comms

External: N2YO · Heavens-Above · Gunter

§ Orbital elements

Epoch: 2026-09-20T16:28:43.393440Z

Period
94.27 min
Inclination
43.0026°
Eccentricity
0.0001075
Mean motion
15.27591008 rev/d
Perigee alt
482.3 km
Apogee alt
483.8 km
Semi-major
6,861.2 km
B*
6.9451e-5
RAAN
340.3686°
Arg perigee
261.6682°
Mean anomaly
98.4047°
Rev number
17,217

§ Raw data

STARLINK-302601 57524U 23115D   26263.68661335  .00001650  00000+0  69451-4 0  99922 57524  43.0026 340.3686 0001075 261.6682  98.4047 15.27591008172172

JSON: /api/v1/satellites/57524 · /tle

For live sub-satellite position, see the globe view (requires WebGL).

§ Visibility from observer

Set your observer location to see the next 7 days of passes ≥ 10°. The values pass through the URL so the page stays shareable.

No JS? Fill the form by hand. The geolocation button needs JavaScript.